Regional Weather Roundup
Issued by NWS Newport/Morehead, NC

Home | Current Version | Previous Version | Text Only | Print | Product List | Glossary On
Versions: 1 2 3 4 5 6 7 8 9 10 11 12 13 14 15 16 17 18 19 20 21 22 23 24 25 26 27 28 29 30 31 32 33 34 35 36 37 38 39 40 41 42 43 44 45 46 47 48 49 50
000
ASUS42 KMHX 130325
RWRMHX
WEATHER ROUNDUP FOR EASTERN NORTH CAROLINA
NATIONAL WEATHER SERVICE NEWPORT/MOREHEAD CITY NC
1000 PM EST FRI FEB 12 2016

NOTE: "FAIR" INDICATES FEW OR NO CLOUDS BELOW 12,000 FEET
WITH NO SIGNIFICANT WEATHER AND/OR OBSTRUCTIONS TO VISIBILITY

NCZ015>017-031-032-045>047-102-103-130400-
NORTH COAST

CITY           SKY/WX    TMP DP  RH WIND       PRES   REMARKS
EDENTON        PTCLDY    31  28  92 NW6       30.04R
ELIZABETH CITY CLOUDY    27  25  92 W7        30.02S
KITTY HAWK     CLOUDY    32  31  96 W5        29.99S
MANTEO         CLOUDY    32  32 100 NW5       30.00F

$$

NCZ045>047-081-094-103-104-130400-
CENTRAL COAST

CITY           SKY/WX    TMP DP  RH WIND       PRES   REMARKS
FRISCO         CLOUDY    36  34  92 NW12      30.01R
SWANQUARTER      N/A     30 N/A N/A NW2       30.00S

$$

NCZ095-097-098-100-101-130400-
SOUTHERN COAST

CITY           SKY/WX    TMP DP  RH WIND       PRES   REMARKS
BEAUFORT       CLOUDY    34  32  92 NW12      30.04R
CEDAR ISLAND     N/A     34 N/A N/A NW14G20   30.06S
JACKSONVILLE   CLOUDY    33  31  92 W9        30.07R FOG
PINEY ISLAND   CLOUDY   N/A N/A N/A NW9       30.03R
WILMINGTON     PTCLDY    33  30  88 NW7       30.07S


$$

NCZ011>013-027>030-043-044-078>080-089-090>093-098-130400-
COASTAL PLAIN

CITY           SKY/WX    TMP DP  RH WIND       PRES   REMARKS
AHOSKIE        NOT AVBL
CLINTON        CLOUDY    31  31 100 CALM      30.07F FOG
ELIZABETHTOWN  CLOUDY    32  31  96 CALM      30.06F
GOLDSBORO      CLOUDY    30  30 100 W6        30.04F
GREENVILLE     CLOUDY    30  28  93 CALM      30.07S
HAVELOCK       CLOUDY    33  32  96 W9        30.06R
KENANSVILLE    CLOUDY    31  31 100 CALM      30.07F FOG
KINSTON        CLOUDY    30  29  94 CALM      30.06F
NEW BERN       CLOUDY    32  29  88 NW8       30.07R
RICHLANDS      CLOUDY    32  27  80 CALM      30.07F
ROCKY MOUNT    CLOUDY    29  25  85 SW6       30.05F
WASHINGTON     CLOUDY    29  26  89 W5        30.04F
WHITEVILLE     PTCLDY    31  28  90 CALM      30.06S

$$

AMZ130-135-150-152-154-156-158-170-250-252-270-ANZ085-086-088-633-658-670-130400-
MARINE OBSERVATIONS

STATION/POSITION TIME  TEMP    WIND        PRES    WAVE   SWELL
                       AIR SEA DIR/SP/G            HT/PER HT/PER
                 (UTC) (F)     (DEG/KT/KT) (MB)    (FT/S) (FT/S)
CHESAPEAKE LIGHT 0300   29     300/ 13/ 14 1016.8
64 E VA BEACH    0250   36 48  330/ 12/ 14 1014.8    2/ 9   2/ 9
DUCK             0300   30                 1015.3
2 E DUCK         0211      42                N/A     2/ 7
OREGON INLET     0300   33 42              1015.7
13E OREGON INLT  0300      45                N/A     3/ 5
HATTERAS CG      0300   36 45              1015.5
DIAMOND BUOY     0250   44 71  330/ 16/ 19 1014.8    5/ 9   2/ 9
CAPE LOOKOUT     NOT AVBL
BEAUFORT LAB     0300   34 43              1016.3
30 SE NEW RVR IN 0308   39 63              1016.2
30 SE NEW RVR IN 0225      62                N/A     4/ 6
27 SE WRIGHTSVLE 0208   37 60  320/ 14/ 19 1016.1
5 SE WRIGHTSVLE  0208   37 51  310/ 12/ 17 1018.1
225 S CAPE HAT   0250   60 68  280/ 25/ 31   N/A    18/ 9
41 SE CHARLESTON 0250   54 68  340/  8/ 12 1017.1    4/ 6   3/ 6

$$



USA.gov is the U.S. government's official web portal to all federal, state and local government web resources and services.